sat.trackr.live / text

‹ back to catalog

STARLINK-38035

NORAD 69759 · 2026-150W

PAYLOAD ACTIVE UNKNOWN

§ Identity

Operator
Country
US
Launch date
2026-07-02
Launch site
AFWTR
Launch vehicle
Mass (kg)
RCS (m²)

Purposes: comms

External: N2YO · Heavens-Above · Gunter

§ Orbital elements

Epoch: 2026-09-20T04:04:53.954688Z

Period
93.91 min
Inclination
97.2849°
Eccentricity
0.0001746
Mean motion
15.33441809 rev/d
Perigee alt
464.4 km
Apogee alt
466.7 km
Semi-major
6,843.7 km
B*
1.7043e-4
RAAN
102.0788°
Arg perigee
82.5348°
Mean anomaly
277.6093°
Rev number
1,368

§ Raw data

STARLINK-380351 69759U 26150W   26263.17006892  .00005430  00000+0  17043-3 0  99912 69759  97.2849 102.0788 0001746  82.5348 277.6093 15.33441809 13681

JSON: /api/v1/satellites/69759 · /tle

For live sub-satellite position, see the globe view (requires WebGL).

§ Visibility from observer

Set your observer location to see the next 7 days of passes ≥ 10°. The values pass through the URL so the page stays shareable.

No JS? Fill the form by hand. The geolocation button needs JavaScript.